TimeCST,TemperatureF,Dew PointF,Humidity,Sea Level PressureIn,VisibilityMPH,Wind Direction,Wind SpeedMPH,Gust SpeedMPH,PrecipitationIn,Events,Conditions,WindDirDegrees,DateUTC
12:15 AM,21.2,17.6,86,30.04,10.0,South,11.5,-,N/A,,Overcast,170,2013-03-03 06:15:00
12:35 AM,21.2,17.6,86,30.04,10.0,South,9.2,-,N/A,,Overcast,180,2013-03-03 06:35:00
12:55 AM,21.2,17.6,86,30.04,10.0,South,8.1,-,N/A,,Overcast,180,2013-03-03 06:55:00
1:15 AM,21.2,19.4,93,30.04,10.0,South,8.1,-,N/A,,Overcast,180,2013-03-03 07:15:00
1:55 AM,21.2,19.4,93,30.03,10.0,South,9.2,-,N/A,,Overcast,170,2013-03-03 07:55:00
2:15 AM,21.2,19.4,93,30.04,10.0,SSE,9.2,-,N/A,,Overcast,160,2013-03-03 08:15:00
2:35 AM,21.2,19.4,93,30.03,10.0,SSE,8.1,-,N/A,,Overcast,160,2013-03-03 08:35:00
2:55 AM,21.2,17.6,86,30.03,10.0,South,8.1,-,N/A,,Overcast,170,2013-03-03 08:55:00
3:15 AM,21.2,17.6,86,30.02,10.0,SSE,8.1,-,N/A,,Overcast,160,2013-03-03 09:15:00
3:35 AM,21.2,17.6,86,30.01,10.0,SSE,6.9,-,N/A,,Overcast,160,2013-03-03 09:35:00
3:55 AM,21.2,17.6,86,30.01,10.0,SSE,6.9,-,N/A,,Overcast,160,2013-03-03 09:55:00
4:15 AM,21.2,17.6,86,30.00,10.0,SSE,6.9,-,N/A,,Overcast,160,2013-03-03 10:15:00
4:35 AM,21.2,17.6,86,30.00,10.0,SSE,8.1,-,N/A,,Overcast,150,2013-03-03 10:35:00
4:55 AM,21.2,17.6,86,30.00,10.0,SE,9.2,-,N/A,,Overcast,140,2013-03-03 10:55:00
5:15 AM,21.2,17.6,86,30.00,10.0,SE,9.2,-,N/A,,Overcast,140,2013-03-03 11:15:00
5:35 AM,21.2,17.6,86,30.00,10.0,SSE,9.2,-,N/A,,Overcast,150,2013-03-03 11:35:00
5:55 AM,21.2,17.6,86,30.00,10.0,SSE,10.4,-,N/A,,Overcast,150,2013-03-03 11:55:00
6:15 AM,19.4,17.6,93,30.00,10.0,SSE,11.5,-,N/A,,Overcast,150,2013-03-03 12:15:00
6:35 AM,19.4,17.6,93,29.99,10.0,SE,10.4,-,N/A,,Overcast,140,2013-03-03 12:35:00
6:55 AM,19.4,17.6,93,29.99,10.0,SSE,11.5,-,N/A,,Overcast,150,2013-03-03 12:55:00
7:15 AM,19.4,15.8,86,29.99,10.0,SE,12.7,-,N/A,,Overcast,140,2013-03-03 13:15:00
7:35 AM,17.6,15.8,93,29.99,10.0,SSE,12.7,-,N/A,,Overcast,150,2013-03-03 13:35:00
7:55 AM,17.6,14.0,86,29.98,10.0,SSE,12.7,-,N/A,,Overcast,150,2013-03-03 13:55:00
8:15 AM,17.6,12.2,79,29.98,10.0,SSE,12.7,-,N/A,,Scattered Clouds,150,2013-03-03 14:15:00
8:35 AM,17.6,12.2,79,29.98,10.0,SSE,11.5,-,N/A,,Clear,150,2013-03-03 14:35:00
8:55 AM,17.6,12.2,79,29.97,10.0,SSE,13.8,-,N/A,,Clear,150,2013-03-03 14:55:00
9:15 AM,19.4,14.0,80,29.97,10.0,SSE,13.8,-,N/A,,Clear,150,2013-03-03 15:15:00
9:35 AM,19.4,14.0,80,29.97,10.0,SSE,16.1,-,N/A,,Clear,150,2013-03-03 15:35:00
9:55 AM,21.2,15.8,80,29.97,10.0,SSE,16.1,20.7,N/A,,Mostly Cloudy,160,2013-03-03 15:55:00
10:15 AM,23.0,17.6,80,29.97,9.0,SSE,15.0,-,N/A,,Overcast,160,2013-03-03 16:15:00
10:35 AM,23.0,17.6,80,29.96,8.0,SSE,12.7,-,N/A,,Overcast,160,2013-03-03 16:35:00
10:55 AM,23.0,17.6,80,29.96,9.0,SE,16.1,-,N/A,,Overcast,140,2013-03-03 16:55:00
11:15 AM,23.0,17.6,80,29.96,10.0,SSE,16.1,-,N/A,,Overcast,150,2013-03-03 17:15:00
11:35 AM,23.0,17.6,80,29.96,9.0,SSE,15.0,-,N/A,,Overcast,150,2013-03-03 17:35:00
11:55 AM,24.8,19.4,80,29.95,9.0,SSE,13.8,-,N/A,,Overcast,150,2013-03-03 17:55:00
12:15 PM,24.8,17.6,74,29.95,10.0,SSE,12.7,-,N/A,,Overcast,160,2013-03-03 18:15:00
12:35 PM,24.8,19.4,80,29.94,10.0,SE,13.8,-,N/A,,Overcast,140,2013-03-03 18:35:00
12:55 PM,24.8,19.4,80,29.94,10.0,SE,12.7,-,N/A,,Overcast,140,2013-03-03 18:55:00
1:15 PM,24.8,19.4,80,29.93,10.0,SE,12.7,-,N/A,,Overcast,130,2013-03-03 19:15:00
1:35 PM,24.8,19.4,80,29.92,10.0,SE,13.8,-,N/A,,Overcast,140,2013-03-03 19:35:00
1:55 PM,26.6,21.2,80,29.91,10.0,SE,13.8,-,N/A,,Overcast,130,2013-03-03 19:55:00
2:15 PM,26.6,21.2,80,29.90,10.0,SE,16.1,19.6,N/A,,Overcast,130,2013-03-03 20:15:00
2:35 PM,26.6,21.2,80,29.89,10.0,SE,17.3,-,N/A,,Mostly Cloudy,140,2013-03-03 20:35:00
2:55 PM,26.6,23.0,86,29.89,10.0,SE,13.8,-,N/A,,Overcast,130,2013-03-03 20:55:00
3:15 PM,26.6,23.0,86,29.89,10.0,SE,18.4,-,N/A,,Overcast,140,2013-03-03 21:15:00
3:35 PM,26.6,21.2,80,29.88,10.0,SE,13.8,-,N/A,,Overcast,130,2013-03-03 21:35:00
3:55 PM,28.4,21.2,74,29.88,10.0,SE,13.8,-,N/A,,Overcast,130,2013-03-03 21:55:00
4:15 PM,28.4,19.4,69,29.88,10.0,SE,10.4,-,N/A,,Overcast,130,2013-03-03 22:15:00
4:35 PM,28.4,21.2,74,29.88,10.0,ESE,9.2,-,N/A,,Overcast,120,2013-03-03 22:35:00
4:55 PM,28.4,19.4,69,29.88,10.0,SE,8.1,-,N/A,,Overcast,130,2013-03-03 22:55:00
5:15 PM,28.4,21.2,74,29.88,10.0,ESE,8.1,-,N/A,,Overcast,120,2013-03-03 23:15:00
5:35 PM,28.4,19.4,69,29.88,10.0,SE,9.2,-,N/A,,Overcast,130,2013-03-03 23:35:00
5:55 PM,28.4,21.2,74,29.88,10.0,ESE,6.9,-,N/A,,Overcast,110,2013-03-03 23:55:00
6:15 PM,28.4,23.0,80,29.88,10.0,East,9.2,-,N/A,,Overcast,100,2013-03-04 00:15:00
6:35 PM,28.4,23.0,80,29.88,10.0,East,5.8,-,N/A,,Overcast,100,2013-03-04 00:35:00
6:55 PM,28.4,23.0,80,29.88,10.0,ESE,6.9,-,N/A,,Mostly Cloudy,110,2013-03-04 00:55:00
7:15 PM,28.4,23.0,80,29.88,10.0,ESE,5.8,-,N/A,,Mostly Cloudy,110,2013-03-04 01:15:00
7:35 PM,28.4,23.0,80,29.89,10.0,ESE,5.8,-,N/A,,Mostly Cloudy,110,2013-03-04 01:35:00
7:55 PM,26.6,23.0,86,29.89,10.0,East,6.9,-,N/A,,Mostly Cloudy,80,2013-03-04 01:55:00
8:15 PM,28.4,17.6,64,29.88,10.0,East,10.4,19.6,N/A,,Mostly Cloudy,100,2013-03-04 02:15:00
8:35 PM,28.4,19.4,69,29.89,10.0,SE,8.1,-,N/A,,Partly Cloudy,130,2013-03-04 02:35:00
8:55 PM,28.4,19.4,69,29.89,10.0,SE,11.5,19.6,N/A,,Partly Cloudy,130,2013-03-04 02:55:00
9:15 PM,28.4,19.4,69,29.89,10.0,SSE,11.5,17.3,N/A,,Scattered Clouds,150,2013-03-04 03:15:00
9:35 PM,28.4,21.2,74,29.89,10.0,SSE,9.2,-,N/A,,Mostly Cloudy,150,2013-03-04 03:35:00
9:55 PM,26.6,23.0,86,29.89,10.0,South,8.1,-,N/A,,Mostly Cloudy,180,2013-03-04 03:55:00
10:15 PM,26.6,23.0,86,29.89,10.0,South,9.2,-,N/A,,Overcast,180,2013-03-04 04:15:00
10:35 PM,26.6,23.0,86,29.89,10.0,South,9.2,-,N/A,,Overcast,170,2013-03-04 04:35:00
10:55 PM,26.6,23.0,86,29.89,5.0,SSE,12.7,-,N/A,,Mostly Cloudy,150,2013-03-04 04:55:00
11:15 PM,26.6,23.0,86,29.89,3.0,SE,15.0,-,N/A,,Overcast,140,2013-03-04 05:15:00
11:35 PM,26.6,24.8,93,29.89,2.0,SE,11.5,-,N/A,Snow,Light Snow,130,2013-03-04 05:35:00
11:55 PM,26.6,24.8,93,29.89,1.5,SE,12.7,-,N/A,Snow,Light Snow,130,2013-03-04 05:55:00